This is the latest recevied weather packets stored in our database for station/object JE3XST-13. If no packets are shown the sender has not sent any weather packets the latest 10 day(s).
| Time | Temp. | Humidity | Pressure | Rain* | Wind** | Luminosity | Snow |
|---|---|---|---|---|---|---|---|
| 1777850116 | 18.89° C | 73% | 1004 hPa | 0 mm | - | - | - |
| 1777848317 | 18.33° C | 77% | 1003.8 hPa | 0 mm | - | - | - |
| 1777846517 | 18.33° C | 78% | 1003.4 hPa | 0 mm | - | - | - |
| 1777844717 | 17.78° C | 80% | 1002.9 hPa | 0 mm | - | - | - |
| 1777842917 | 17.22° C | 83% | 1002.5 hPa | 0 mm | - | - | - |
| 1777841116 | 17.22° C | 87% | 1002 hPa | 0 mm | - | - | - |
| 1777839317 | 17.22° C | 93% | 1001.7 hPa | 0.25 mm | - | - | - |
| 1777837518 | 17.22° C | 95% | 1001.3 hPa | 0.25 mm | - | - | - |
| 1777835716 | 17.22° C | 96% | 1001.3 hPa | 0 mm | - | - | - |
| 1777833916 | 17.78° C | 96% | 1000.6 hPa | 2.29 mm | - | - | - |
| 1777832117 | 17.78° C | 96% | 1000.4 hPa | 2.29 mm | - | - | - |
| 1777830318 | 18.33° C | 97% | 1000 hPa | 0.25 mm | - | - | - |
| 1777828518 | 18.33° C | 97% | 999.3 hPa | 0 mm | - | - | - |
| 1777826718 | 17.78° C | 97% | 998.9 hPa | 0 mm | - | - | - |
| 1777824917 | 17.78° C | 97% | 999.3 hPa | 0.51 mm | - | - | - |
| 1777823130 | 17.78° C | 96% | 999.1 hPa | 0 mm | - | - | - |
| 1777821329 | 17.78° C | 96% | 999.5 hPa | 0 mm | - | - | - |
| 1777819529 | 17.78° C | 96% | 1000 hPa | 12.45 mm | - | - | - |
| 1777817730 | 17.22° C | 96% | 1000 hPa | 6.86 mm | - | - | - |
| 1777815930 | 17.22° C | 96% | 1000.9 hPa | 3.3 mm | - | - | - |
| 1777814130 | 17.22° C | 96% | 1001.6 hPa | 2.29 mm | - | - | - |
| 1777812330 | 17.22° C | 96% | 1002.2 hPa | 1.78 mm | - | - | - |
| 1777810529 | 17.22° C | 95% | 1002.7 hPa | 1.27 mm | - | - | - |
| 1777808731 | 17.22° C | 95% | 1002.9 hPa | 0.76 mm | - | - | - |
| 1777806930 | 17.22° C | 94% | 1003.1 hPa | 1.02 mm | - | - | - |
* Rain latest hour (hover to see other rain measurements)
** Current wind speed in m/s (hover to see current wind gust speed)